Regional Weather Roundup
Issued by NWS

Home | Current Version | Previous Version | Graphics & Text | Print | Product List | Glossary On
Versions: 1 2 3 4 5 6 7 8 9 10 11 12 13 14 15 16 17 18 19 20 21 22 23 24 25 26 27 28 29 30 31 32 33 34 35 36 37 38 39 40 41 42 43 44 45 46 47 48 49 50
000
ASUS43 KFSD 290902
RWRSD

WEATHER ROUNDUP FOR SOUTH DAKOTA
NATIONAL WEATHER SERVICE SIOUX FALLS SD
400 AM CDT WED JUL 29 2015

NOTE: "FAIR" INDICATES FEW OR NO CLOUDS BELOW 12,000 FEET WITH NO
SIGNIFICANT WEATHER AND/OR OBSTRUCTIONS TO VISIBILITY.


SDZ001>005-009-010-012>017-291000-
NORTHWEST AND NORTH CENTRAL SOUTH DAKOTA

CITY           SKY/WX    TMP DP  RH WIND       PRES   REMARKS
BUFFALO          N/A     53  38  56 W14       30.06R
FAITH            N/A     57  38  48 W14       30.10R
MOBRIDGE       CLEAR     62  46  55 W12       29.99R
$$

SDZ012>016-024>037-041>051-057-063-072>074-291000-
SOUTHWEST AND SOUTH CENTRAL SOUTH DAKOTA

CITY           SKY/WX    TMP DP  RH WIND       PRES   REMARKS
RAPID CTY ARPT CLEAR     56  39  53 SW5       30.20S
PIERRE         CLEAR     61  45  55 W13       30.07R
CUSTER         CLEAR     46  31  55 SW5       30.32R
ELLSWORTH AFB  CLEAR     54  40  59 W8        30.19R
PHILIP         CLEAR     52  47  83 W8        30.15R
PINE RIDGE     CLEAR     42  39  89 CALM      30.24R
WINNER         FAIR      61  46  57 W9        30.13R
$$

SDZ004>011-016>023-039-040-291000-
NORTHEAST SOUTH DAKOTA

CITY           SKY/WX    TMP DP  RH WIND       PRES   REMARKS
ABERDEEN       CLEAR     56  49  77 SW9       29.96S
WATERTOWN      CLEAR     61  48  62 W13       29.97F
BROOKINGS      CLEAR     57  48  72 SW7       30.04S
SISSETON         N/A     64  49  57 W14       29.90R
$$

SDZ017-020-022-023-036>040-048>070-291000-
SOUTHEAST SOUTH DAKOTA

CITY           SKY/WX    TMP DP  RH WIND       PRES   REMARKS
SIOUX FALLS    CLEAR     63  52  67 SW3       30.07R
HURON          CLEAR     63  47  55 W12       30.02S
MITCHELL       CLEAR     62  51  67 W10       30.07R
YANKTON        CLEAR     61  52  72 SW6       30.09R
$$

ABBREVIATIONS USED IN REMARKS
   TC - TEMPERATURE IN CELSIUS
  WCI - WIND CHILL INDEX
   HX - HEAT INDEX
  VSB - VISIBILITY



USA.gov is the U.S. government's official web portal to all federal, state and local government web resources and services.